Location: Ahausen
(50.4985°N, 8.2722°E)
Time: 01:23:16
(UTC+00:00)

Okean 1-7 Rocket - Pass Details

Date: 18 September 2020
Orbit: 616 x 649 km, 82.5° (Epoch: 23 October)

Event Time Altitude Azimuth Distance (km) Brightness Sun altitude
Rises 20:40:54 0° 348° (NNW) 2,980 7.9 -27.9°
Reaches altitude 10° 20:43:10 10° 347° (NNW) 2,066 6.9 -28.2°
Enters shadow 20:46:41 52° 332° (NNW) 817 4.4 -28.6°
